Regional Weather Roundup
Issued by NWS

Home | Current Version | Previous Version | Text Only | Print | Product List | Glossary Off
Versions: 1 2 3 4 5 6 7 8 9 10 11 12 13 14 15 16 17 18 19 20 21 22 23 24 25 26 27 28 29 30 31 32 33 34 35 36 37 38 39 40 41 42 43 44 45 46 47 48 49 50

000
ASUS43 KOAX 010702
RWRNE

WEATHER ROUNDUP FOR NEBRASKA
NATIONAL WEATHER SERVICE OMAHA NE
200 AM CDT WED OCT 01 2014

NOTES: SATELLITE DATA IS BEING USED TO AUGMENT CLOUD COVER ABOVE
       12000 FEET.
       "FAIR" INDICATES FEW OR NO CLOUDS BELOW 12,000 FEET WITH NO
       SIGNIFICANT WEATHER AND/OR OBSTRUCTIONS TO VISIBILITY.

  * THESE STATIONS DO NOT REPORT WEATHER SUCH AS RAIN...SNOW OR FOG.

NEZ001>004-019>022-054>056-010800-
NEBRASKA PANHANDLE

CITY           SKY/WX    TMP DP  RH WIND       PRES   REMARKS
SCOTTSBLUFF    MOCLDY    52  46  80 N3        29.80R
ALLIANCE       CLOUDY    52  46  80 SW7       29.78R
CHADRON        PTCLDY    49  47  93 CALM      29.76R
KIMBALL        MOCLDY    51  42  70 W7        29.83S
SIDNEY         PTCLDY    54  42  64 W7        29.83S
$$

NEZ057>060-069>072-079>082-010800-
SOUTHWEST NEBRASKA

CITY           SKY/WX    TMP DP  RH WIND       PRES   REMARKS
NORTH PLATTE   CLOUDY    58  50  75 NW8       29.77R
IMPERIAL       MOCLDY    55  46  71 N9        29.77F
LEXINGTON      FOG       59  58  97 S3        29.73F VSB 1/4
MCCOOK         CLOUDY    59  55  87 CALM      29.74F
OGALLALA       CLOUDY    56  52  85 CALM      29.77S
$$

NEZ005>010-023>029-035>040-094-010800-
NORTH CENTRAL NEBRASKA

CITY           SKY/WX    TMP DP  RH WIND       PRES   REMARKS
VALENTINE      CLOUDY    51  46  83 NW5       29.71S
AINSWORTH      CLOUDY    57  47  67 S5        29.71S
BROKEN BOW     CLOUDY    54  52  93 CALM      29.72F
O`NEILL        CLOUDY    62  62  98 S8        29.73S
ORD            CLOUDY    62  60  93 S9        29.71F
$$

NEZ041-046>049-061>064-073>077-083>087-010800-
SOUTH CENTRAL NEBRASKA

CITY           SKY/WX    TMP DP  RH WIND       PRES   REMARKS
GRAND ISLAND   MOCLDY    62  60  93 S5        29.73S
AURORA         MOCLDY    60  60 100 CALM      29.72S FOG
HASTINGS       PTCLDY    62  59  90 E3        29.72F
HEBRON         MOCLDY    64  62  92 E5        29.71S FOG
HOLDREGE       FOG       62  60  95 CALM      29.73F VSB 1/4
KEARNEY *      CLOUDY    63  61  94 SE6       29.73F VSB 1/2
YORK           MOCLDY    63  61  94 SE7       29.72S
$$

NEZ011>018-030>034-042>045-010800-
NORTHEAST NEBRASKA

CITY           SKY/WX    TMP DP  RH WIND       PRES   REMARKS
NORFOLK        CLOUDY    63  62  97 SE9       29.74S
ALBION         CLOUDY    62  60  93 S9        29.73S FOG
BLAIR          LGT RAIN  65  62  92 SE9       29.78R
COLUMBUS *     CLOUDY    63  61  94 SE5       29.75R
FREMONT        LGT RAIN  64  61  91 E20       29.69F
TEKAMAH        RAIN      66  63  90 S16       29.76F FOG
WAYNE          CLOUDY    64  62  94 SE9       29.74F
$$

NEZ050>053-065>068-078-088>093-010800-
SOUTHEAST NEBRASKA

CITY           SKY/WX    TMP DP  RH WIND       PRES   REMARKS
LINCOLN        TSTM      61  59  93 SE6       29.76S
OMAHA EPPLEY   TSTM      65  62  90 S9        29.78R
BEATRICE       CLOUDY    64  63  97 NE9       29.74R
FALLS CITY     CLOUDY    65  63  93 E10       29.72F
NEBRASKA CITY  LGT RAIN  64  64 100 E5        29.73F
PLATTSMOUTH    RAIN      62  59  92 CALM      29.79R
$$

NEZ044-045-051>053-067-010800-
OMAHA AREA

CITY           SKY/WX    TMP DP  RH WIND       PRES   REMARKS
OMAHA EPPLEY   TSTM      65  62  90 S9        29.78R
BLAIR          LGT RAIN  65  62  92 SE9       29.78R
FREMONT        LGT RAIN  64  61  91 E20       29.69F
MILLARD        LGT RAIN  65  63  94 SE5       29.77R
OFFUTT AFB     TSTM      63  63 100 SE6       29.78R FOG
PLATTSMOUTH    RAIN      62  59  92 CALM      29.79R
WAHOO          PTSUNNY   62  59  90 SE15      29.73F
$$


USA.gov is the U.S. government's official web portal to all federal, state and local government web resources and services.